Terug naar catalogus

SL-8 DEB

ActiefLEO
NORAD 21156·DEBRIS·🇷🇺 Russia

Gelanceerd Feb 12, 1991 vanaf Plesetsk Cosmodrome

Loading…

Volgende Passages (komende 24 uur)

TLE

VersSource: Space-Track

Epoch: Sep 14, 2026, 15:49 UTC

1 21156U 91009T   26257.65931927 -.00000026  00000-0 -84463-4 0  9997
2 21156  73.9111 229.6046 0146622 169.5145   4.1500 12.33875120600301

Volg SL-8 DEB in realtime met AllMySat

Download on the App Store